Location: Navajo
(48.7922°N, 105.0603°W)
Time: 03:53:49
(UTC+00:00)

DUCHIFAT 1 - Pass Details

Date: 27 June 2022
Orbit: 580 x 596 km, 98.0° (Epoch: 16 August)

Event Time Altitude Azimuth Distance (km) Brightness Sun altitude
Rises 08:20:42 0° 31° (NNE) 2,841 ? -15.8°
Reaches altitude 10° 08:23:56 10° 59° (ENE) 1,936 ? -15.7°
Maximum altitude 08:26:02 13° 89° (E) 1,715 ? -15.6°
Drops below altitude 10° 08:28:07 10° 119° (ESE) 1,932 ? -15.4°
Enters shadow 08:30:03 - 138° (SE) 2,424 ? -15.3°
